User: anonymous   Login
Location: ????????
(55.0097°N, 38.5678°E)
Time: 16:47:35
(UTC+00:00)
Language:

Cosmos 2112 Rocket - Orbit

View from above orbital plane
View from above orbital plane
View from above satellite
View from above satellite

Ground track
Ground track

The orbit data is extracted from the following two-line orbital elements,

1 21015U 90111B   24172.96133474  .00000273  00000-0  10133-3 0  9997
2 21015  74.0499 119.4232 0020451 112.0781 248.2547 14.36581672853717
Epoch (UTC): 20 June 2024 23:04:19
Eccentricity: 0.0020451
inclination: 74.0499°
perigee height: 755 km
apogee height: 784 km
right ascension of ascending node: 119.4232°
argument of perigee: 112.0781°
revolutions per day: 14.36581672
mean anomaly at epoch: 248.2547°
orbit number at epoch: 85371

The dashed part of the orbit path shows where the satellite is in the earth's shadow,  

DLR